This is the latest recevied weather packets stored in our database for station/object MMMX. If no packets are shown the sender has not sent any weather packets the latest 10 day(s).
| Time | Temp. | Humidity | Pressure | Rain* | Wind** | Luminosity | Snow |
|---|---|---|---|---|---|---|---|
| 1777960426 | 21.67° C | 46% | 1025.7 hPa | - | - | - | - |
| 1777959826 | 21.67° C | 46% | 1025.7 hPa | - | - | - | - |
| 1777959221 | 21.67° C | 46% | 1025.7 hPa | - | - | - | - |
| 1777958621 | 21.67° C | 46% | 1025.7 hPa | - | - | - | - |
| 1777958021 | 21.67° C | 46% | 1025.7 hPa | - | - | - | - |
| 1777957423 | 21.67° C | 46% | 1025.7 hPa | - | - | - | - |
| 1777956818 | 22.78° C | 43% | 1025.4 hPa | - | - | - | - |
| 1777956219 | 22.78° C | 43% | 1025.4 hPa | - | - | - | - |
| 1777955620 | 22.78° C | 43% | 1025.4 hPa | - | - | - | - |
| 1777955018 | 22.78° C | 43% | 1025.4 hPa | - | - | - | - |
| 1777954847 | 22.78° C | 43% | 1025.4 hPa | - | - | - | - |
| 1777954422 | 22.78° C | 43% | 1025.4 hPa | - | - | - | - |
| 1777943621 | 25° C | 41% | 1023.4 hPa | - | - | - | - |
| 1777943026 | 25° C | 41% | 1023.4 hPa | - | - | - | - |
| 1777941342 | 25.56° C | 34% | 1022.7 hPa | - | - | - | - |
| 1777940622 | 25.56° C | 34% | 1022.7 hPa | - | - | - | - |
| 1777939422 | 25.56° C | 34% | 1022.7 hPa | - | - | - | - |
| 1777938222 | 26.67° C | 36% | 1022.7 hPa | - | - | - | - |
| 1777934622 | 27.78° C | 32% | 1022.7 hPa | - | - | - | - |
| 1777933423 | 28.89° C | 20% | 1023 hPa | - | - | - | - |
| 1777932821 | 28.89° C | 20% | 1023 hPa | - | - | - | - |
| 1777931625 | 28.89° C | 23% | 1023.7 hPa | - | - | - | - |
| 1777929825 | 28.89° C | 23% | 1023.7 hPa | - | - | - | - |
| 1777929226 | 28.89° C | 23% | 1023.7 hPa | - | - | - | - |
| 1777928629 | 28.89° C | 23% | 1023.7 hPa | - | - | - | - |
* Rain since midnight (hover to see other rain measurements)
** Current wind speed in m/s (hover to see current wind gust speed)